CW9119 Weather Reports


Display with metric or nautical units.
time (UTC)temp
F
wind
direction
speed
MPH
gust
MPH
rain 1hr
in
rain 24hr
in
rain mn
in
humidity
%
barometer
mb
20260504172107 67 185 0.0 0.0 0.00 0.00 0.00 49 1010.9
20260504171107 68 185 0.0 0.0 0.00 0.00 0.00 48 1010.9
20260504170107 69 185 0.0 0.0 0.00 0.00 0.00 47 1010.8
20260504141106 70 153 0.0 0.0 0.00 0.00 0.00 47 1011.6
20260504140106 70 152 0.0 1.0 0.00 0.00 0.00 46 1011.7
20260504130109 72 148 2.0 8.0 0.00 0.00 0.00 46 1012.2
20260504090108 64 89 0.0 4.0 0.00 0.00 0.00 53 1013.6
20260504081107 63 168 3.0 12.0 0.00 0.00 0.00 51 1013.4
20260504060106 52 31 1.0 7.0 0.00 0.00 0.00 70 1012.7
20260504043106 48 59 0.0 0.0 0.00 0.00 0.00 73 1012.8
20260504041105 48 59 1.0 5.0 0.00 0.00 0.00 71 1012.7
20260504035105 49 59 0.0 0.0 0.00 0.00 0.00 68 1013.0
20260504031105 52 38 0.0 1.0 0.00 0.00 0.00 60 1013.0
20260504030105 52 38 0.0 1.0 0.00 0.00 0.00 60 1013.1
20260504025105 52 34 0.0 4.0 0.00 0.00 0.00 61 1013.1
20260504024105 52 20 2.0 8.0 0.00 0.00 0.00 61 1013.2
20260504023105 52 83 0.0 4.0 0.00 0.00 0.00 61 1013.1
20260504021105 52 115 0.0 0.0 0.00 0.00 0.00 61 1013.2
20260504012107 53 115 0.0 0.0 0.00 0.00 0.00 62 1013.0
20260504010107 53 115 0.0 0.0 0.00 0.00 0.00 61 1013.1
20260503235106 54 85 0.0 0.0 0.00 0.00 0.00 61 1013.3
20260503231106 55 87 0.0 4.0 0.00 0.00 0.00 60 1013.3
20260503224105 55 104 0.0 0.0 0.00 0.00 0.00 58 1013.6
20260503223105 55 104 0.0 1.0 0.00 0.00 0.00 58 1013.7
20260503221105 56 112 0.0 0.0 0.00 0.00 0.00 57 1013.8
20260503220105 56 112 0.0 0.0 0.00 0.00 0.00 57 1013.7
20260503214109 57 112 0.0 7.0 0.00 0.00 0.00 56 1013.8
20260503212109 58 101 0.0 0.0 0.00 0.00 0.00 54 1013.7
20260503211109 58 101 0.0 0.0 0.00 0.00 0.00 53 1013.8
20260503205108 59 101 0.0 0.0 0.00 0.00 0.00 52 1013.8
20260503204109 60 133 0.0 1.0 0.00 0.00 0.00 51 1014.0
20260503203108 60 133 0.0 1.0 0.00 0.00 0.00 50 1013.8
20260503201108 61 159 0.0 1.0 0.00 0.00 0.00 48 1014.0
20260503195108 62 161 0.0 2.0 0.00 0.00 0.00 47 1014.2
20260503193108 63 156 0.0 1.0 0.00 0.00 0.00 45 1014.1
20260503192108 64 153 1.0 7.0 0.00 0.00 0.00 44 1014.1
20260503185108 64 150 2.0 7.0 0.00 0.00 0.00 43 1013.5
20260503174107 67 168 1.0 7.0 0.00 0.00 0.00 38 1012.6
20260503173107 68 171 4.0 11.0 0.00 0.00 0.00 37 1012.5